Location: Berlin
(52.5171°N, 13.3759°E)
Time: 13:20:16
(UTC+01:00)

ISS - Pass Details

Date: 10 January 2018
Orbit: 402 x 407 km, 51.6° (Epoch: 22 January)

Event Time Altitude Azimuth Distance (km) Brightness Sun altitude
Exits shadow 04:58:32 17° 100° (E) 1,112 -0.9 -28.6°
Drops below altitude 10° 04:59:25 10° 99° (E) 1,468 -0.1 -28.5°
Sets 05:01:30 0° 98° (E) 2,329 1.3 -28.2°
